User: anonymous
Location: Columbia
(38.9520°N, 92.3340°W)
Time: 16:16:33
(UTC-05:00)
Language:

Cosmos 158 Rocket - Orbit

View from above orbital plane
View from above orbital plane
View from above satellite
View from above satellite

Ground track
Ground track

The orbit data is extracted from the following two-line orbital elements,

1 02802U 67045B   14244.48097289  .00000116  00000-0  41678-4 0  5440
2 02802 074.0109 264.4853 0067243 205.2269 154.5600 14.43220723481849
Epoch (UTC): 01 September 2014 11:32:36
Eccentricity: 0.0067243
inclination: 74.0109°
perigee height: 700 km
apogee height: 796 km
right ascension of ascending node: 264.4853°
argument of perigee: 205.2269°
revolutions per day: 14.43220723
mean anomaly at epoch: 154.5600°
orbit number at epoch: 48184

The dashed part of the orbit path shows where the satellite is in the earth's shadow,  

DLR